User: anonymous
Location: Oshawa
(43.9000°N, 78.8670°W)
Time: 04:05:49
(UTC-04:00)
Language:

Explorer 11/Cluster Stage 4 - Orbit

View from above orbital plane
View from above orbital plane
View from above satellite
View from above satellite

Ground track
Ground track

The orbit data is extracted from the following two-line orbital elements,

1 00107U 61013A   14261.75674987  .00003355  00000-0  44984-3 0  1334
2 00107 028.7872 137.2954 0561769 009.0160 039.7862 14.05172570669744
Epoch (UTC): 18 September 2014 18:09:43
Eccentricity: 0.0561769
inclination: 28.7872°
perigee height: 468 km
apogee height: 1283 km
right ascension of ascending node: 137.2954°
argument of perigee: 9.0160°
revolutions per day: 14.05172570
mean anomaly at epoch: 39.7862°
orbit number at epoch: 66974

The dashed part of the orbit path shows where the satellite is in the earth's shadow,  

DLR